Time,TemperatureF,DewpointF,PressureIn,WindDirection,WindDirectionDegrees,WindSpeedMPH,WindSpeedGustMPH,Humidity,HourlyPrecipIn,Conditions,Clouds,dailyrainin,SoftwareType,DateUTC
2013-04-15 00:00:00,27.7,19.8,28.49,SW,225,2.0,2.0,72,0.00,,,0.00,meteohub,2013-04-15 04:00:00,
2013-04-15 00:01:00,27.7,19.8,28.49,SW,225,1.0,2.0,72,0.00,,,0.00,meteohub,2013-04-15 04:01:00,
2013-04-15 00:03:00,27.7,19.8,28.49,SW,225,0.0,2.0,72,0.00,,,0.00,meteohub,2013-04-15 04:03:00,
2013-04-15 00:05:00,27.5,19.6,28.49,SW,225,0.0,2.0,72,0.00,,,0.00,meteohub,2013-04-15 04:05:00,
2013-04-15 00:10:00,27.5,19.6,28.49,SW,225,0.0,2.0,72,0.00,,,0.00,meteohub,2013-04-15 04:10:00,
2013-04-15 00:16:00,27.3,19.2,28.49,SW,225,0.0,2.0,71,0.00,,,0.00,meteohub,2013-04-15 04:16:00,
2013-04-15 00:21:00,27.3,19.2,28.49,SW,225,0.0,0.0,71,0.00,,,0.00,meteohub,2013-04-15 04:21:00,
2013-04-15 00:26:00,27.1,19.4,28.49,North,0,0.0,0.0,72,0.00,,,0.00,meteohub,2013-04-15 04:26:00,
2013-04-15 00:31:00,27.1,19.4,28.49,SW,225,1.0,1.0,72,0.00,,,0.00,meteohub,2013-04-15 04:31:00,
2013-04-15 00:36:00,27.1,19.4,28.49,SW,225,0.0,2.0,72,0.00,,,0.00,meteohub,2013-04-15 04:36:00,
2013-04-15 00:41:00,27.1,19.4,28.49,SW,225,0.0,2.0,72,0.00,,,0.00,meteohub,2013-04-15 04:41:00,
2013-04-15 00:47:00,27.1,19.4,28.50,SW,225,0.0,2.0,72,0.00,,,0.00,meteohub,2013-04-15 04:47:00,
2013-04-15 00:52:00,27.1,19.4,28.50,NE,45,0.0,2.0,72,0.00,,,0.00,meteohub,2013-04-15 04:52:00,
2013-04-15 00:57:00,27.0,19.2,28.50,SW,225,0.0,2.0,72,0.00,,,0.00,meteohub,2013-04-15 04:57:00,
2013-04-15 01:02:00,27.0,19.2,28.51,SW,225,0.0,2.0,72,0.00,,,0.00,meteohub,2013-04-15 05:02:00,
2013-04-15 01:07:00,27.0,19.4,28.51,SW,225,1.0,2.0,73,0.00,,,0.00,meteohub,2013-04-15 05:07:00,
2013-04-15 01:12:00,27.1,19.6,28.51,SW,225,2.0,2.0,73,0.00,,,0.00,meteohub,2013-04-15 05:12:00,
2013-04-15 01:17:00,27.0,19.4,28.51,South,180,2.0,2.0,73,0.00,,,0.00,meteohub,2013-04-15 05:17:00,
2013-04-15 01:23:00,27.0,19.8,28.50,South,180,0.0,2.0,74,0.00,,,0.00,meteohub,2013-04-15 05:23:00,
2013-04-15 01:28:00,27.0,19.8,28.50,SE,135,1.0,2.0,74,0.00,,,0.00,meteohub,2013-04-15 05:28:00,
2013-04-15 01:33:00,27.0,19.8,28.49,SE,135,2.0,2.0,74,0.00,,,0.00,meteohub,2013-04-15 05:33:00,
2013-04-15 01:38:00,27.0,20.1,28.50,SW,225,2.0,2.0,75,0.00,,,0.00,meteohub,2013-04-15 05:38:00,
2013-04-15 01:44:00,27.0,20.1,28.49,South,180,3.0,3.0,75,0.00,,,0.00,meteohub,2013-04-15 05:44:00,
2013-04-15 01:49:00,27.0,20.5,28.50,SE,135,0.0,3.0,76,0.00,,,0.00,meteohub,2013-04-15 05:49:00,
2013-04-15 01:54:00,27.0,20.5,28.49,SW,225,1.0,3.0,76,0.00,,,0.00,meteohub,2013-04-15 05:54:00,
2013-04-15 01:59:00,27.0,20.5,28.50,SW,225,1.0,3.0,76,0.00,,,0.00,meteohub,2013-04-15 05:59:00,
2013-04-15 02:04:00,27.0,20.5,28.49,SE,135,2.0,2.0,76,0.00,,,0.00,meteohub,2013-04-15 06:04:00,
2013-04-15 02:10:00,27.0,20.5,28.49,SE,135,1.0,2.0,76,0.00,,,0.00,meteohub,2013-04-15 06:10:00,
2013-04-15 02:15:00,27.0,20.5,28.49,SE,135,0.0,2.0,76,0.00,,,0.00,meteohub,2013-04-15 06:15:00,
2013-04-15 02:20:00,26.8,20.3,28.48,SE,135,0.0,2.0,76,0.00,,,0.00,meteohub,2013-04-15 06:20:00,
2013-04-15 02:25:00,26.8,20.5,28.48,East,90,1.0,2.0,77,0.00,,,0.00,meteohub,2013-04-15 06:25:00,
2013-04-15 02:31:00,26.8,20.5,28.48,East,90,0.0,2.0,77,0.00,,,0.00,meteohub,2013-04-15 06:31:00,
2013-04-15 02:36:00,26.8,20.5,28.48,SE,135,1.0,2.0,77,0.00,,,0.00,meteohub,2013-04-15 06:36:00,
2013-04-15 02:41:00,26.8,20.5,28.49,South,180,2.0,2.0,77,0.00,,,0.00,meteohub,2013-04-15 06:41:00,
2013-04-15 02:46:00,26.8,20.5,28.48,SE,135,2.0,2.0,77,0.00,,,0.00,meteohub,2013-04-15 06:46:00,
2013-04-15 02:51:00,26.8,20.5,28.48,South,180,2.0,2.0,77,0.00,,,0.00,meteohub,2013-04-15 06:51:00,
2013-04-15 02:56:00,26.8,20.8,28.48,SE,135,1.0,2.0,78,0.00,,,0.00,meteohub,2013-04-15 06:56:00,
2013-04-15 03:02:00,26.8,20.8,28.48,South,180,2.0,2.0,78,0.00,,,0.00,meteohub,2013-04-15 07:02:00,
2013-04-15 03:41:00,27.1,21.2,28.50,South,180,3.0,5.0,78,0.00,,,0.00,meteohub,2013-04-15 07:41:00,
2013-04-15 03:43:00,27.1,21.2,28.50,South,180,4.0,5.0,78,0.00,,,0.00,meteohub,2013-04-15 07:43:00,
2013-04-15 03:48:00,27.1,21.2,28.50,SE,135,2.0,4.0,78,0.00,,,0.00,meteohub,2013-04-15 07:48:00,
2013-04-15 03:49:00,27.1,21.2,28.50,SE,135,2.0,4.0,78,0.00,,,0.00,meteohub,2013-04-15 07:49:00,
2013-04-15 03:52:00,27.1,21.2,28.50,South,180,1.0,4.0,78,0.00,,,0.00,meteohub,2013-04-15 07:52:00,
2013-04-15 03:54:00,27.1,21.2,28.50,South,180,1.0,4.0,78,0.00,,,0.00,meteohub,2013-04-15 07:54:00,
2013-04-15 03:59:00,27.1,21.2,28.50,South,180,2.0,4.0,78,0.00,,,0.00,meteohub,2013-04-15 07:59:00,
2013-04-15 04:04:00,27.3,21.4,28.50,SW,225,2.0,3.0,78,0.00,,,0.00,meteohub,2013-04-15 08:04:00,
2013-04-15 04:09:00,27.3,21.4,28.50,SE,135,3.0,3.0,78,0.00,,,0.00,meteohub,2013-04-15 08:09:00,
2013-04-15 04:14:00,27.3,21.4,28.50,SE,135,2.0,4.0,78,0.00,,,0.00,meteohub,2013-04-15 08:14:00,
2013-04-15 04:19:00,27.3,21.4,28.51,South,180,1.0,4.0,78,0.00,,,0.00,meteohub,2013-04-15 08:19:00,
2013-04-15 04:25:00,27.3,21.4,28.51,West,270,2.0,4.0,78,0.00,,,0.00,meteohub,2013-04-15 08:25:00,
2013-04-15 04:30:00,27.1,21.2,28.51,South,180,1.0,4.0,78,0.00,,,0.00,meteohub,2013-04-15 08:30:00,
2013-04-15 04:35:00,27.1,21.2,28.51,South,180,3.0,4.0,78,0.00,,,0.00,meteohub,2013-04-15 08:35:00,
2013-04-15 04:40:00,27.3,21.4,28.51,South,180,0.0,3.0,78,0.00,,,0.00,meteohub,2013-04-15 08:40:00,
2013-04-15 04:41:00,27.1,21.2,28.51,South,180,0.0,3.0,78,0.00,,,0.00,meteohub,2013-04-15 08:41:00,
2013-04-15 04:44:00,27.1,21.2,28.51,SE,135,2.0,3.0,78,0.00,,,0.00,meteohub,2013-04-15 08:44:00,
2013-04-15 04:49:00,27.3,21.4,28.51,SE,135,2.0,3.0,78,0.00,,,0.00,meteohub,2013-04-15 08:49:00,
2013-04-15 04:55:00,27.3,21.4,28.51,South,180,3.0,3.0,78,0.00,,,0.00,meteohub,2013-04-15 08:55:00,
2013-04-15 05:00:00,27.3,21.4,28.52,South,180,2.0,3.0,78,0.00,,,0.00,meteohub,2013-04-15 09:00:00,
2013-04-15 05:05:00,27.3,21.4,28.52,SSE,158,2.0,3.0,78,0.00,,,0.00,meteohub,2013-04-15 09:05:00,
2013-04-15 05:10:00,27.5,21.6,28.52,SSE,158,2.0,3.0,78,0.00,,,0.00,meteohub,2013-04-15 09:10:00,
2013-04-15 05:16:00,27.5,21.6,28.53,South,180,2.0,3.0,78,0.00,,,0.00,meteohub,2013-04-15 09:16:00,
2013-04-15 05:21:00,27.5,21.6,28.53,NW,315,0.0,3.0,78,0.00,,,0.00,meteohub,2013-04-15 09:21:00,
2013-04-15 05:26:00,27.5,21.6,28.53,West,270,1.0,3.0,78,0.00,,,0.00,meteohub,2013-04-15 09:26:00,
2013-04-15 05:31:00,27.5,21.6,28.53,SW,225,1.0,3.0,78,0.00,,,0.00,meteohub,2013-04-15 09:31:00,
2013-04-15 05:37:00,27.7,21.7,28.54,SW,225,2.0,2.0,78,0.00,,,0.00,meteohub,2013-04-15 09:37:00,
2013-04-15 05:42:00,28.0,22.1,28.55,South,180,5.0,6.0,78,0.00,,,0.00,meteohub,2013-04-15 09:42:00,
2013-04-15 05:47:00,28.4,23.5,28.54,SW,225,4.0,6.0,82,0.00,,,0.00,meteohub,2013-04-15 09:47:00,
2013-04-15 05:52:00,28.8,23.9,28.55,SSW,203,2.0,6.0,82,0.00,,,0.00,meteohub,2013-04-15 09:52:00,
2013-04-15 05:57:00,28.9,24.1,28.55,SW,225,2.0,6.0,82,0.00,,,0.00,meteohub,2013-04-15 09:57:00,
2013-04-15 06:03:00,28.9,23.9,28.54,East,90,1.0,4.0,81,0.00,,,0.00,meteohub,2013-04-15 10:03:00,
2013-04-15 06:08:00,28.9,23.9,28.55,SW,225,2.0,4.0,81,0.00,,,0.00,meteohub,2013-04-15 10:08:00,
2013-04-15 06:13:00,28.9,23.5,28.55,SW,225,3.0,3.0,80,0.00,,,0.00,meteohub,2013-04-15 10:13:00,
2013-04-15 06:18:00,29.3,23.9,28.56,SE,135,2.0,3.0,80,0.00,,,0.00,meteohub,2013-04-15 10:18:00,
2013-04-15 06:23:00,29.3,23.9,28.55,SW,225,2.0,3.0,80,0.00,,,0.00,meteohub,2013-04-15 10:23:00,
2013-04-15 06:28:00,29.5,23.7,28.55,East,90,4.0,4.0,79,0.00,,,0.00,meteohub,2013-04-15 10:28:00,
2013-04-15 06:33:00,29.7,23.9,28.56,SE,135,4.0,4.0,79,0.00,,,0.00,meteohub,2013-04-15 10:33:00,
2013-04-15 06:38:00,30.0,23.7,28.55,SSE,158,1.0,4.0,77,0.00,,,0.00,meteohub,2013-04-15 10:38:00,
2013-04-15 06:43:00,30.2,23.5,28.56,SE,135,3.0,4.0,76,0.00,,,0.00,meteohub,2013-04-15 10:43:00,
2013-04-15 06:48:00,30.4,23.4,28.56,East,90,5.0,5.0,75,0.00,,,0.00,meteohub,2013-04-15 10:48:00,
2013-04-15 06:54:00,30.6,23.5,28.56,SW,225,3.0,5.0,75,0.00,,,0.00,meteohub,2013-04-15 10:54:00,
2013-04-15 06:59:00,30.9,23.9,28.56,SE,135,4.0,5.0,75,0.00,,,0.00,meteohub,2013-04-15 10:59:00,
2013-04-15 07:04:00,31.5,24.1,28.56,NW,315,2.0,5.0,74,0.00,,,0.00,meteohub,2013-04-15 11:04:00,
2013-04-15 07:09:00,31.8,23.9,28.56,South,180,6.0,6.0,72,0.00,,,0.00,meteohub,2013-04-15 11:09:00,
2013-04-15 07:15:00,32.2,23.5,28.56,South,180,3.0,6.0,70,0.00,,,0.00,meteohub,2013-04-15 11:15:00,
2013-04-15 07:20:00,32.4,23.0,28.57,SE,135,4.0,6.0,68,0.00,,,0.00,meteohub,2013-04-15 11:20:00,
2013-04-15 07:25:00,32.5,23.2,28.57,SW,225,2.0,5.0,68,0.00,,,0.00,meteohub,2013-04-15 11:25:00,
2013-04-15 07:30:00,32.7,23.4,28.57,SE,135,2.0,4.0,68,0.00,,,0.00,meteohub,2013-04-15 11:30:00,
2013-04-15 07:35:00,32.9,23.2,28.57,SE,135,1.0,4.0,67,0.00,,,0.00,meteohub,2013-04-15 11:35:00,
2013-04-15 07:40:00,33.3,22.8,28.57,SE,135,2.0,4.0,65,0.00,,,0.00,meteohub,2013-04-15 11:40:00,
2013-04-15 07:46:00,33.6,22.8,28.57,North,0,2.0,4.0,64,0.00,,,0.00,meteohub,2013-04-15 11:46:00,
2013-04-15 07:51:00,34.0,22.3,28.57,North,0,2.0,4.0,62,0.00,,,0.00,meteohub,2013-04-15 11:51:00,
2013-04-15 07:56:00,34.3,23.0,28.57,NW,315,2.0,4.0,63,0.00,,,0.00,meteohub,2013-04-15 11:56:00,
2013-04-15 08:02:00,34.9,22.8,28.57,East,90,3.0,4.0,61,0.00,,,0.00,meteohub,2013-04-15 12:02:00,
2013-04-15 08:07:00,35.6,22.6,28.57,NE,45,3.0,5.0,59,0.00,,,0.00,meteohub,2013-04-15 12:07:00,
2013-04-15 08:12:00,36.0,22.6,28.57,NW,315,2.0,5.0,58,0.00,,,0.00,meteohub,2013-04-15 12:12:00,
2013-04-15 08:17:00,36.7,22.5,28.58,South,180,3.0,6.0,56,0.00,,,0.00,meteohub,2013-04-15 12:17:00,
2013-04-15 08:22:00,37.2,21.2,28.57,SE,135,4.0,6.0,52,0.00,,,0.00,meteohub,2013-04-15 12:22:00,
2013-04-15 08:28:00,37.6,21.9,28.57,South,180,9.0,9.0,53,0.00,,,0.00,meteohub,2013-04-15 12:28:00,
2013-04-15 08:33:00,37.9,21.9,28.57,SE,135,4.0,9.0,52,0.00,,,0.00,meteohub,2013-04-15 12:33:00,
2013-04-15 08:38:00,38.5,22.5,28.56,SE,135,14.0,14.0,52,0.00,,,0.00,meteohub,2013-04-15 12:38:00,
2013-04-15 08:43:00,38.7,21.6,28.57,SE,135,11.0,14.0,50,0.00,,,0.00,meteohub,2013-04-15 12:43:00,
2013-04-15 08:49:00,39.4,20.8,28.57,SE,135,12.0,15.0,47,0.00,,,0.00,meteohub,2013-04-15 12:49:00,
2013-04-15 08:54:00,39.9,20.8,28.57,South,180,6.0,15.0,46,0.00,,,0.00,meteohub,2013-04-15 12:54:00,
2013-04-15 08:59:00,40.6,21.6,28.57,SE,135,4.0,15.0,46,0.00,,,0.00,meteohub,2013-04-15 12:59:00,
2013-04-15 09:05:00,41.5,21.7,28.57,SW,225,7.0,15.0,45,0.00,,,0.00,meteohub,2013-04-15 13:05:00,
2013-04-15 09:10:00,41.5,20.1,28.57,SE,135,6.0,15.0,42,0.00,,,0.00,meteohub,2013-04-15 13:10:00,
2013-04-15 09:16:00,42.1,20.7,28.57,NE,45,4.0,15.0,42,0.00,,,0.00,meteohub,2013-04-15 13:16:00,
2013-04-15 09:22:00,42.6,21.2,28.58,South,180,6.0,15.0,42,0.00,,,0.00,meteohub,2013-04-15 13:22:00,
2013-04-15 09:27:00,43.0,20.3,28.58,SE,135,9.0,14.0,40,0.00,,,0.00,meteohub,2013-04-15 13:27:00,
2013-04-15 09:32:00,43.5,20.8,28.58,South,180,7.0,14.0,40,0.00,,,0.00,meteohub,2013-04-15 13:32:00,
2013-04-15 09:37:00,43.9,20.5,28.57,SE,135,15.0,15.0,39,0.00,,,0.00,meteohub,2013-04-15 13:37:00,
2013-04-15 09:42:00,44.4,21.0,28.58,ESE,113,12.0,15.0,39,0.00,,,0.00,meteohub,2013-04-15 13:42:00,
2013-04-15 09:48:00,44.8,20.7,28.58,SE,135,11.0,15.0,38,0.00,,,0.00,meteohub,2013-04-15 13:48:00,
2013-04-15 09:54:00,44.8,20.1,28.58,ENE,68,6.0,15.0,37,0.00,,,0.00,meteohub,2013-04-15 13:54:00,
2013-04-15 09:59:00,45.7,21.6,28.58,SE,135,8.0,15.0,38,0.00,,,0.00,meteohub,2013-04-15 13:59:00,
2013-04-15 10:04:00,45.5,20.1,28.57,ESE,113,9.0,15.0,36,0.00,,,0.00,meteohub,2013-04-15 14:04:00,
2013-04-15 10:09:00,45.1,21.0,28.57,East,90,4.0,15.0,38,0.00,,,0.00,meteohub,2013-04-15 14:09:00,
2013-04-15 10:14:00,44.8,20.7,28.57,South,180,4.0,15.0,38,0.00,,,0.00,meteohub,2013-04-15 14:14:00,
2013-04-15 10:20:00,44.8,20.7,28.58,SE,135,8.0,15.0,38,0.00,,,0.00,meteohub,2013-04-15 14:20:00,
2013-04-15 10:25:00,45.1,21.0,28.57,South,180,11.0,13.0,38,0.00,,,0.00,meteohub,2013-04-15 14:25:00,
2013-04-15 10:30:00,45.5,21.4,28.57,SE,135,8.0,13.0,38,0.00,,,0.00,meteohub,2013-04-15 14:30:00,
2013-04-15 10:35:00,46.0,21.9,28.57,South,180,4.0,16.0,38,0.00,,,0.00,meteohub,2013-04-15 14:35:00,
2013-04-15 10:41:00,46.6,20.3,28.57,SE,135,6.0,16.0,35,0.00,,,0.00,meteohub,2013-04-15 14:41:00,
2013-04-15 10:46:00,46.6,20.3,28.57,South,180,5.0,16.0,35,0.00,,,0.00,meteohub,2013-04-15 14:46:00,
2013-04-15 10:52:00,46.9,19.9,28.56,ESE,113,8.0,14.0,34,0.00,,,0.00,meteohub,2013-04-15 14:52:00,
2013-04-15 10:57:00,47.7,20.7,28.57,South,180,6.0,15.0,34,0.00,,,0.00,meteohub,2013-04-15 14:57:00,
2013-04-15 11:02:00,48.6,21.4,28.56,South,180,10.0,15.0,34,0.00,,,0.00,meteohub,2013-04-15 15:02:00,
2013-04-15 11:07:00,48.7,20.1,28.56,ENE,68,11.0,15.0,32,0.00,,,0.00,meteohub,2013-04-15 15:07:00,
2013-04-15 11:12:00,48.6,20.8,28.56,South,180,12.0,12.0,33,0.00,,,0.00,meteohub,2013-04-15 15:12:00,
2013-04-15 11:17:00,48.9,21.0,28.56,East,90,6.0,12.0,33,0.00,,,0.00,meteohub,2013-04-15 15:17:00,
2013-04-15 11:22:00,49.5,21.6,28.55,SE,135,12.0,12.0,33,0.00,,,0.00,meteohub,2013-04-15 15:22:00,
2013-04-15 11:28:00,49.8,21.9,28.56,SE,135,6.0,12.0,33,0.00,,,0.00,meteohub,2013-04-15 15:28:00,
2013-04-15 11:33:00,50.4,21.6,28.55,SE,135,8.0,12.0,32,0.00,,,0.00,meteohub,2013-04-15 15:33:00,
2013-04-15 11:38:00,50.7,21.9,28.56,South,180,11.0,12.0,32,0.00,,,0.00,meteohub,2013-04-15 15:38:00,
2013-04-15 11:43:00,50.7,21.2,28.56,SW,225,6.0,11.0,31,0.00,,,0.00,meteohub,2013-04-15 15:43:00,
2013-04-15 11:49:00,50.9,22.1,28.56,SE,135,3.0,15.0,32,0.00,,,0.00,meteohub,2013-04-15 15:49:00,
2013-04-15 11:54:00,51.4,23.4,28.55,South,180,4.0,15.0,33,0.00,,,0.00,meteohub,2013-04-15 15:54:00,
2013-04-15 11:59:00,52.2,23.9,28.55,South,180,4.0,15.0,33,0.00,,,0.00,meteohub,2013-04-15 15:59:00,
2013-04-15 12:04:00,52.0,22.3,28.55,SE,135,6.0,15.0,31,0.00,,,0.00,meteohub,2013-04-15 16:04:00,
2013-04-15 12:09:00,52.2,23.2,28.54,SE,135,7.0,9.0,32,0.00,,,0.00,meteohub,2013-04-15 16:09:00,
2013-04-15 12:14:00,52.3,22.6,28.55,South,180,11.0,11.0,31,0.00,,,0.00,meteohub,2013-04-15 16:14:00,
2013-04-15 12:19:00,52.2,22.5,28.54,SE,135,9.0,11.0,31,0.00,,,0.00,meteohub,2013-04-15 16:19:00,
2013-04-15 12:25:00,52.3,22.6,28.54,South,180,8.0,12.0,31,0.00,,,0.00,meteohub,2013-04-15 16:25:00,
2013-04-15 12:30:00,52.5,22.8,28.54,South,180,11.0,13.0,31,0.00,,,0.00,meteohub,2013-04-15 16:30:00,
2013-04-15 12:35:00,53.2,24.1,28.54,SW,225,8.0,13.0,32,0.00,,,0.00,meteohub,2013-04-15 16:35:00,
2013-04-15 12:40:00,53.2,24.8,28.54,SSW,203,8.0,13.0,33,0.00,,,0.00,meteohub,2013-04-15 16:40:00,
2013-04-15 12:45:00,53.8,23.9,28.54,SE,135,11.0,13.0,31,0.00,,,0.00,meteohub,2013-04-15 16:45:00,
2013-04-15 12:50:00,54.0,24.1,28.54,SE,135,9.0,13.0,31,0.00,,,0.00,meteohub,2013-04-15 16:50:00,
2013-04-15 12:55:00,54.3,25.2,28.54,SSW,203,5.0,12.0,32,0.00,,,0.00,meteohub,2013-04-15 16:55:00,
2013-04-15 13:00:00,54.3,24.3,28.54,SE,135,11.0,11.0,31,0.00,,,0.00,meteohub,2013-04-15 17:00:00,
2013-04-15 13:06:00,54.5,24.4,28.54,South,180,9.0,11.0,31,0.00,,,0.00,meteohub,2013-04-15 17:06:00,
2013-04-15 13:11:00,55.0,25.0,28.54,East,90,9.0,11.0,31,0.00,,,0.00,meteohub,2013-04-15 17:11:00,
2013-04-15 13:16:00,55.2,24.3,28.54,South,180,6.0,11.0,30,0.00,,,0.00,meteohub,2013-04-15 17:16:00,
2013-04-15 13:21:00,55.0,24.1,28.54,South,180,6.0,10.0,30,0.00,,,0.00,meteohub,2013-04-15 17:21:00,
2013-04-15 13:22:00,55.2,25.2,28.54,SE,135,8.0,10.0,31,0.00,,,0.00,meteohub,2013-04-15 17:22:00,
2013-04-15 13:27:00,55.4,26.1,28.54,SE,135,9.0,10.0,32,0.00,,,0.00,meteohub,2013-04-15 17:27:00,
2013-04-15 13:29:00,55.2,24.3,28.53,SE,135,11.0,11.0,30,0.00,,,0.00,meteohub,2013-04-15 17:29:00,
2013-04-15 13:34:00,55.2,25.2,28.54,SE,135,7.0,11.0,31,0.00,,,0.00,meteohub,2013-04-15 17:34:00,
2013-04-15 13:39:00,55.9,26.4,28.54,SE,135,11.0,11.0,32,0.00,,,0.00,meteohub,2013-04-15 17:39:00,
2013-04-15 13:44:00,55.9,26.4,28.54,South,180,12.0,12.0,32,0.00,,,0.00,meteohub,2013-04-15 17:44:00,
2013-04-15 13:50:00,55.9,26.4,28.53,SE,135,4.0,12.0,32,0.00,,,0.00,meteohub,2013-04-15 17:50:00,
2013-04-15 13:55:00,57.0,28.2,28.53,SE,135,4.0,12.0,33,0.00,,,0.00,meteohub,2013-04-15 17:55:00,
2013-04-15 14:00:00,57.4,27.0,28.52,South,180,10.0,11.0,31,0.00,,,0.00,meteohub,2013-04-15 18:00:00,
2013-04-15 14:06:00,57.4,27.0,28.53,SE,135,10.0,11.0,31,0.00,,,0.00,meteohub,2013-04-15 18:06:00,
2013-04-15 14:11:00,57.2,27.7,28.52,South,180,6.0,10.0,32,0.00,,,0.00,meteohub,2013-04-15 18:11:00,
2013-04-15 14:16:00,57.4,27.0,28.52,SE,135,10.0,10.0,31,0.00,,,0.00,meteohub,2013-04-15 18:16:00,
2013-04-15 14:22:00,57.4,27.0,28.53,South,180,7.0,17.0,31,0.00,,,0.00,meteohub,2013-04-15 18:22:00,
2013-04-15 14:27:00,57.9,27.5,28.52,South,180,10.0,17.0,31,0.00,,,0.00,meteohub,2013-04-15 18:27:00,
2013-04-15 14:29:00,57.6,27.1,28.52,South,180,7.0,17.0,31,0.00,,,0.00,meteohub,2013-04-15 18:29:00,
2013-04-15 14:30:00,57.6,27.9,28.52,South,180,8.0,17.0,32,0.00,,,0.00,meteohub,2013-04-15 18:30:00,
2013-04-15 14:34:00,57.9,28.2,28.52,SE,135,9.0,17.0,32,0.00,,,0.00,meteohub,2013-04-15 18:34:00,
2013-04-15 14:39:00,57.7,27.3,28.52,SE,135,10.0,10.0,31,0.00,,,0.00,meteohub,2013-04-15 18:39:00,
2013-04-15 14:44:00,57.4,27.0,28.52,SE,135,10.0,11.0,31,0.00,,,0.00,meteohub,2013-04-15 18:44:00,
2013-04-15 14:50:00,57.2,26.8,28.52,South,180,8.0,11.0,31,0.00,,,0.00,meteohub,2013-04-15 18:50:00,
2013-04-15 14:55:00,57.4,27.7,28.52,SE,135,7.0,11.0,32,0.00,,,0.00,meteohub,2013-04-15 18:55:00,
2013-04-15 15:00:00,57.7,28.0,28.52,SE,135,8.0,15.0,32,0.00,,,0.00,meteohub,2013-04-15 19:00:00,
2013-04-15 15:05:00,58.3,27.9,28.52,South,180,14.0,15.0,31,0.00,,,0.00,meteohub,2013-04-15 19:05:00,
2013-04-15 15:10:00,57.9,28.2,28.52,East,90,8.0,14.0,32,0.00,,,0.00,meteohub,2013-04-15 19:10:00,
2013-04-15 15:16:00,58.5,28.8,28.52,South,180,4.0,14.0,32,0.00,,,0.00,meteohub,2013-04-15 19:16:00,
2013-04-15 15:21:00,59.2,28.6,28.51,East,90,2.0,14.0,31,0.00,,,0.00,meteohub,2013-04-15 19:21:00,
2013-04-15 15:26:00,59.4,27.9,28.51,South,180,10.0,11.0,30,0.00,,,0.00,meteohub,2013-04-15 19:26:00,
2013-04-15 15:32:00,57.9,27.5,28.51,East,90,9.0,12.0,31,0.00,,,0.00,meteohub,2013-04-15 19:32:00,
2013-04-15 15:37:00,58.1,28.4,28.51,South,180,9.0,12.0,32,0.00,,,0.00,meteohub,2013-04-15 19:37:00,
2013-04-15 15:43:00,58.1,28.4,28.51,SE,135,10.0,12.0,32,0.00,,,0.00,meteohub,2013-04-15 19:43:00,
2013-04-15 15:48:00,57.9,27.5,28.50,SE,135,7.0,11.0,31,0.00,,,0.00,meteohub,2013-04-15 19:48:00,
2013-04-15 15:53:00,57.6,27.1,28.50,SSE,158,11.0,13.0,31,0.00,,,0.00,meteohub,2013-04-15 19:53:00,
2013-04-15 15:57:00,57.4,27.7,28.50,SE,135,11.0,15.0,32,0.00,,,0.00,meteohub,2013-04-15 19:57:00,
2013-04-15 15:58:00,57.6,27.9,28.50,South,180,12.0,15.0,32,0.00,,,0.00,meteohub,2013-04-15 19:58:00,
2013-04-15 16:02:00,57.9,28.9,28.50,East,90,6.0,15.0,33,0.00,,,0.00,meteohub,2013-04-15 20:02:00,
2013-04-15 16:03:00,57.9,28.9,28.50,East,90,6.0,15.0,33,0.00,,,0.00,meteohub,2013-04-15 20:03:00,
2013-04-15 16:05:00,58.3,29.3,28.50,South,180,10.0,15.0,33,0.00,,,0.00,meteohub,2013-04-15 20:05:00,
2013-04-15 16:06:00,58.5,28.8,28.50,South,180,6.0,15.0,32,0.00,,,0.00,meteohub,2013-04-15 20:06:00,
2013-04-15 16:08:00,58.6,29.7,28.50,South,180,3.0,15.0,33,0.00,,,0.00,meteohub,2013-04-15 20:08:00,
2013-04-15 16:14:00,58.8,28.9,28.50,SE,135,11.0,12.0,32,0.00,,,0.00,meteohub,2013-04-15 20:14:00,
2013-04-15 16:19:00,59.0,28.4,28.50,NE,45,11.0,11.0,31,0.00,,,0.00,meteohub,2013-04-15 20:19:00,
2013-04-15 16:24:00,58.6,28.9,28.50,SE,135,11.0,11.0,32,0.00,,,0.00,meteohub,2013-04-15 20:24:00,
2013-04-15 16:29:00,59.0,29.1,28.50,East,90,2.0,12.0,32,0.00,,,0.00,meteohub,2013-04-15 20:29:00,
2013-04-15 16:34:00,59.5,29.7,28.50,SE,135,8.0,12.0,32,0.00,,,0.00,meteohub,2013-04-15 20:34:00,
2013-04-15 16:40:00,59.5,30.4,28.50,SW,225,6.0,12.0,33,0.00,,,0.00,meteohub,2013-04-15 20:40:00,
2013-04-15 16:45:00,59.0,28.4,28.50,ESE,113,11.0,11.0,31,0.00,,,0.00,meteohub,2013-04-15 20:45:00,
2013-04-15 16:50:00,58.3,29.3,28.50,South,180,8.0,11.0,33,0.00,,,0.00,meteohub,2013-04-15 20:50:00,
2013-04-15 16:55:00,58.6,31.1,28.50,SE,135,5.0,12.0,35,0.00,,,0.00,meteohub,2013-04-15 20:55:00,
2013-04-15 17:00:00,58.5,29.5,28.50,SE,135,7.0,12.0,33,0.00,,,0.00,meteohub,2013-04-15 21:00:00,
2013-04-15 17:05:00,58.1,29.1,28.51,South,180,8.0,11.0,33,0.00,,,0.00,meteohub,2013-04-15 21:05:00,
2013-04-15 17:10:00,57.7,29.5,28.51,SE,135,8.0,11.0,34,0.00,,,0.00,meteohub,2013-04-15 21:10:00,
2013-04-15 17:15:00,57.9,29.7,28.51,South,180,5.0,11.0,34,0.00,,,0.00,meteohub,2013-04-15 21:15:00,
2013-04-15 17:21:00,58.3,30.0,28.51,ESE,113,6.0,11.0,34,0.00,,,0.00,meteohub,2013-04-15 21:21:00,
2013-04-15 17:26:00,58.5,30.2,28.52,South,180,9.0,9.0,34,0.00,,,0.00,meteohub,2013-04-15 21:26:00,
2013-04-15 17:32:00,58.5,29.5,28.52,SE,135,6.0,12.0,33,0.00,,,0.00,meteohub,2013-04-15 21:32:00,
2013-04-15 17:37:00,58.1,29.8,28.52,South,180,9.0,12.0,34,0.00,,,0.00,meteohub,2013-04-15 21:37:00,
2013-04-15 17:42:00,57.7,30.2,28.53,South,180,4.0,12.0,35,0.00,,,0.00,meteohub,2013-04-15 21:42:00,
2013-04-15 17:47:00,57.4,29.3,28.53,South,180,8.0,11.0,34,0.00,,,0.00,meteohub,2013-04-15 21:47:00,
2013-04-15 17:52:00,57.4,29.3,28.52,SE,135,5.0,11.0,34,0.00,,,0.00,meteohub,2013-04-15 21:52:00,
2013-04-15 17:57:00,57.7,29.5,28.52,South,180,7.0,11.0,34,0.00,,,0.00,meteohub,2013-04-15 21:57:00,
2013-04-15 18:02:00,57.7,29.5,28.53,South,180,9.0,9.0,34,0.00,,,0.00,meteohub,2013-04-15 22:02:00,
2013-04-15 18:07:00,57.7,29.5,28.52,SE,135,4.0,10.0,34,0.00,,,0.00,meteohub,2013-04-15 22:07:00,
2013-04-15 18:12:00,57.4,29.3,28.52,South,180,10.0,10.0,34,0.00,,,0.00,meteohub,2013-04-15 22:12:00,
2013-04-15 18:17:00,57.2,29.8,28.53,SE,135,8.0,10.0,35,0.00,,,0.00,meteohub,2013-04-15 22:17:00,
2013-04-15 18:22:00,56.8,30.2,28.53,SE,135,7.0,10.0,36,0.00,,,0.00,meteohub,2013-04-15 22:22:00,
2013-04-15 18:27:00,56.8,30.9,28.53,SE,135,8.0,10.0,37,0.00,,,0.00,meteohub,2013-04-15 22:27:00,
2013-04-15 18:32:00,56.5,29.8,28.53,SE,135,11.0,11.0,36,0.00,,,0.00,meteohub,2013-04-15 22:32:00,
2013-04-15 18:37:00,56.1,30.2,28.53,SE,135,6.0,11.0,37,0.00,,,0.00,meteohub,2013-04-15 22:37:00,
2013-04-15 18:42:00,55.9,30.0,28.53,SE,135,8.0,11.0,37,0.00,,,0.00,meteohub,2013-04-15 22:42:00,
2013-04-15 18:47:00,55.8,30.6,28.52,SSE,158,11.0,11.0,38,0.00,,,0.00,meteohub,2013-04-15 22:47:00,
2013-04-15 18:52:00,55.4,30.2,28.53,SE,135,8.0,11.0,38,0.00,,,0.00,meteohub,2013-04-15 22:52:00,
2013-04-15 18:57:00,55.0,30.6,28.53,South,180,7.0,13.0,39,0.00,,,0.00,meteohub,2013-04-15 22:57:00,
2013-04-15 19:03:00,54.7,30.2,28.53,SSE,158,5.0,13.0,39,0.00,,,0.00,meteohub,2013-04-15 23:03:00,
2013-04-15 19:08:00,54.5,30.0,28.53,SE,135,4.0,13.0,39,0.00,,,0.00,meteohub,2013-04-15 23:08:00,
2013-04-15 19:13:00,54.3,30.6,28.53,South,180,4.0,13.0,40,0.00,,,0.00,meteohub,2013-04-15 23:13:00,
2013-04-15 19:18:00,54.0,30.7,28.53,SW,225,2.0,7.0,41,0.00,,,0.00,meteohub,2013-04-15 23:18:00,
2013-04-15 19:23:00,53.4,31.5,28.53,South,180,4.0,7.0,43,0.00,,,0.00,meteohub,2013-04-15 23:23:00,
2013-04-15 19:28:00,52.9,31.6,28.53,SE,135,4.0,4.0,44,0.00,,,0.00,meteohub,2013-04-15 23:28:00,
2013-04-15 19:33:00,52.7,31.5,28.54,South,180,4.0,4.0,44,0.00,,,0.00,meteohub,2013-04-15 23:33:00,
2013-04-15 19:39:00,52.3,31.1,28.54,South,180,5.0,7.0,44,0.00,,,0.00,meteohub,2013-04-15 23:39:00,
2013-04-15 19:44:00,52.2,30.9,28.53,South,180,2.0,7.0,44,0.00,,,0.00,meteohub,2013-04-15 23:44:00,
2013-04-15 19:49:00,52.0,30.7,28.53,South,180,8.0,8.0,44,0.00,,,0.00,meteohub,2013-04-15 23:49:00,
2013-04-15 19:54:00,52.0,30.7,28.53,East,90,7.0,8.0,44,0.00,,,0.00,meteohub,2013-04-15 23:54:00,
2013-04-15 19:59:00,51.8,30.6,28.53,South,180,4.0,11.0,44,0.00,,,0.00,meteohub,2013-04-15 23:59:00,
2013-04-15 20:04:00,51.4,31.3,28.53,South,180,6.0,11.0,46,0.00,,,0.00,meteohub,2013-04-16 00:04:00,
2013-04-15 20:09:00,51.1,31.1,28.54,SE,135,6.0,11.0,46,0.00,,,0.00,meteohub,2013-04-16 00:09:00,
2013-04-15 20:14:00,50.9,31.5,28.54,West,270,8.0,9.0,47,0.00,,,0.00,meteohub,2013-04-16 00:14:00,
2013-04-15 20:20:00,50.7,31.3,28.54,NW,315,7.0,9.0,47,0.00,,,0.00,meteohub,2013-04-16 00:20:00,
2013-04-15 20:25:00,50.5,31.6,28.54,SE,135,5.0,12.0,48,0.00,,,0.00,meteohub,2013-04-16 00:25:00,
2013-04-15 20:30:00,50.4,31.5,28.54,ESE,113,7.0,16.0,48,0.00,,,0.00,meteohub,2013-04-16 00:30:00,
2013-04-15 20:35:00,50.0,31.6,28.54,ESE,113,8.0,16.0,49,0.00,,,0.00,meteohub,2013-04-16 00:35:00,
2013-04-15 20:40:00,50.0,31.6,28.55,SE,135,7.0,16.0,49,0.00,,,0.00,meteohub,2013-04-16 00:40:00,
2013-04-15 20:45:00,50.0,31.6,28.54,SE,135,8.0,12.0,49,0.00,,,0.00,meteohub,2013-04-16 00:45:00,
2013-04-15 20:50:00,49.6,31.8,28.54,SSE,158,4.0,13.0,50,0.00,,,0.00,meteohub,2013-04-16 00:50:00,
2013-04-15 20:55:00,49.3,32.0,28.55,South,180,8.0,13.0,51,0.00,,,0.00,meteohub,2013-04-16 00:55:00,
2013-04-15 21:01:00,48.9,31.6,28.55,East,90,7.0,13.0,51,0.00,,,0.00,meteohub,2013-04-16 01:01:00,
2013-04-15 21:06:00,48.7,31.5,28.55,North,0,4.0,12.0,51,0.00,,,0.00,meteohub,2013-04-16 01:06:00,
2013-04-15 21:11:00,48.6,31.8,28.56,South,180,7.0,11.0,52,0.00,,,0.00,meteohub,2013-04-16 01:11:00,
2013-04-15 21:16:00,48.4,31.6,28.56,South,180,4.0,11.0,52,0.00,,,0.00,meteohub,2013-04-16 01:16:00,
2013-04-15 21:21:00,48.2,31.5,28.56,East,90,3.0,11.0,52,0.00,,,0.00,meteohub,2013-04-16 01:21:00,
2013-04-15 21:26:00,48.0,31.6,28.56,SE,135,2.0,11.0,53,0.00,,,0.00,meteohub,2013-04-16 01:26:00,
2013-04-15 21:31:00,47.7,31.3,28.56,ESE,113,7.0,8.0,53,0.00,,,0.00,meteohub,2013-04-16 01:31:00,
2013-04-15 21:36:00,47.7,31.3,28.56,East,90,4.0,14.0,53,0.00,,,0.00,meteohub,2013-04-16 01:36:00,
2013-04-15 21:42:00,47.5,31.3,28.56,South,180,2.0,14.0,53,0.00,,,0.00,meteohub,2013-04-16 01:42:00,
2013-04-15 21:47:00,47.3,31.1,28.55,East,90,8.0,14.0,53,0.00,,,0.00,meteohub,2013-04-16 01:47:00,
2013-04-15 21:52:00,47.1,30.9,28.56,South,180,4.0,14.0,53,0.00,,,0.00,meteohub,2013-04-16 01:52:00,
2013-04-15 21:57:00,46.9,30.7,28.56,East,90,6.0,10.0,53,0.00,,,0.00,meteohub,2013-04-16 01:57:00,
2013-04-15 22:02:00,46.9,31.1,28.56,South,180,5.0,12.0,54,0.00,,,0.00,meteohub,2013-04-16 02:02:00,
2013-04-15 22:07:00,46.8,30.9,28.56,East,90,4.0,12.0,54,0.00,,,0.00,meteohub,2013-04-16 02:07:00,
2013-04-15 22:12:00,46.6,30.7,28.55,NE,45,9.0,12.0,54,0.00,,,0.00,meteohub,2013-04-16 02:12:00,
2013-04-15 22:17:00,46.8,30.9,28.56,WNW,293,2.0,13.0,54,0.00,,,0.00,meteohub,2013-04-16 02:17:00,
2013-04-15 22:22:00,46.8,30.9,28.56,North,0,4.0,13.0,54,0.00,,,0.00,meteohub,2013-04-16 02:22:00,
2013-04-15 22:27:00,46.6,30.7,28.56,ESE,113,8.0,13.0,54,0.00,,,0.00,meteohub,2013-04-16 02:27:00,
2013-04-15 22:32:00,46.6,30.7,28.56,East,90,4.0,11.0,54,0.00,,,0.00,meteohub,2013-04-16 02:32:00,
2013-04-15 22:37:00,46.6,30.7,28.56,East,90,2.0,15.0,54,0.00,,,0.00,meteohub,2013-04-16 02:37:00,
2013-04-15 22:42:00,46.4,30.7,28.56,NNE,23,5.0,15.0,54,0.00,,,0.00,meteohub,2013-04-16 02:42:00,
2013-04-15 22:47:00,46.6,30.7,28.56,East,90,7.0,15.0,54,0.00,,,0.00,meteohub,2013-04-16 02:47:00,
2013-04-15 22:52:00,46.8,30.6,28.56,South,180,5.0,9.0,53,0.00,,,0.00,meteohub,2013-04-16 02:52:00,
2013-04-15 22:57:00,46.4,30.7,28.57,NE,45,7.0,9.0,54,0.00,,,0.00,meteohub,2013-04-16 02:57:00,
2013-04-15 23:02:00,46.2,30.0,28.56,West,270,14.0,14.0,53,0.00,,,0.00,meteohub,2013-04-16 03:02:00,
2013-04-15 23:07:00,46.0,29.8,28.56,East,90,8.0,14.0,53,0.00,,,0.00,meteohub,2013-04-16 03:07:00,
2013-04-15 23:12:00,46.0,29.8,28.56,ESE,113,8.0,14.0,53,0.00,,,0.00,meteohub,2013-04-16 03:12:00,
2013-04-15 23:17:00,46.0,29.8,28.56,NW,315,5.0,14.0,53,0.00,,,0.00,meteohub,2013-04-16 03:17:00,
2013-04-15 23:22:00,45.9,29.7,28.56,NE,45,11.0,13.0,53,0.00,,,0.00,meteohub,2013-04-16 03:22:00,
2013-04-15 23:27:00,45.9,30.2,28.56,SE,135,5.0,15.0,54,0.00,,,0.00,meteohub,2013-04-16 03:27:00,
2013-04-15 23:32:00,45.5,29.8,28.56,SE,135,4.0,15.0,54,0.00,,,0.00,meteohub,2013-04-16 03:32:00,
2013-04-15 23:37:00,45.3,30.0,28.56,SE,135,8.0,15.0,55,0.00,,,0.00,meteohub,2013-04-16 03:37:00,
2013-04-15 23:42:00,45.5,30.2,28.56,East,90,7.0,11.0,55,0.00,,,0.00,meteohub,2013-04-16 03:42:00,
2013-04-15 23:47:00,45.5,30.2,28.56,SW,225,13.0,13.0,55,0.00,,,0.00,meteohub,2013-04-16 03:47:00,
2013-04-15 23:52:00,45.5,30.2,28.56,SE,135,6.0,15.0,55,0.00,,,0.00,meteohub,2013-04-16 03:52:00,
2013-04-15 23:57:00,45.5,30.2,28.57,South,180,8.0,15.0,55,0.00,,,0.00,meteohub,2013-04-16 03:57:00,